CW9825 Weather Reports


Display with metric or nautical units.
time (UTC)temp
F
wind
direction
speed
MPH
gust
MPH
rain 1hr
in
rain 24hr
in
rain mn
in
humidity
%
barometer
mb
20190322062032 29 319 2.0 5.0 0.00 0.00 0.00 87 1023.0
20190322061615 29 325 0.0 5.0 0.00 0.00 0.00 87 1023.0
20190322061027 29 313 1.0 5.0 0.00 0.00 0.00 86 1023.0
20190322060522 29 325 1.0 5.0 0.00 0.00 0.00 86 1022.9
20190322060038 30 306 2.0 5.0 0.00 0.00 0.00 85 1022.9
20190322055523 30 301 2.0 5.0 0.00 0.00 0.00 86 1022.8
20190322055029 30 312 0.0 5.0 0.00 0.00 0.00 87 1022.8
20190322054529 30 315 2.0 5.0 0.00 0.00 0.00 87 1022.8
20190322054020 30 320 1.0 4.0 0.00 0.00 0.00 87 1022.8
20190322053526 30 302 2.0 7.0 0.00 0.00 0.00 87 1022.9
20190322053031 30 293 2.0 7.0 0.00 0.00 0.00 87 1022.9
20190322052525 30 298 3.0 7.0 0.00 0.00 0.00 87 1022.9
20190322052017 30 298 2.0 6.0 0.00 0.00 0.00 87 1022.8
20190322051537 30 302 2.0 6.0 0.00 0.00 0.00 87 1022.7
20190322051015 30 313 2.0 6.0 0.00 0.00 0.00 88 1022.7
20190322050514 30 296 3.0 6.0 0.00 0.00 0.00 88 1022.7
20190322050046 30 303 1.0 4.0 0.00 0.00 0.00 89 1022.6
20190322045519 30 304 1.0 4.0 0.00 0.00 0.00 88 1022.6
20190322045013 30 294 1.0 4.0 0.00 0.00 0.00 88 1022.6
20190322044520 30 292 2.0 5.0 0.00 0.00 0.00 88 1022.6
20190322044011 30 291 2.0 5.0 0.00 0.00 0.00 87 1022.6
20190322043511 30 285 2.0 6.0 0.00 0.00 0.00 87 1022.6
20190322043025 31 297 2.0 5.0 0.00 0.00 0.00 87 1022.6
20190322042511 31 297 2.0 5.0 0.00 0.00 0.00 86 1022.6
20190322042016 31 292 2.0 5.0 0.00 0.00 0.00 86 1022.6
20190322041523 31 309 3.0 6.0 0.00 0.00 0.00 85 1022.5
20190322041014 31 288 3.0 6.0 0.00 0.00 0.00 85 1022.5
20190322040510 31 284 2.0 8.0 0.00 0.00 0.00 85 1022.5
20190322040029 32 282 3.0 8.0 0.00 0.00 0.00 84 1022.3
20190322035511 32 284 5.0 10.0 0.00 0.00 0.00 82 1022.2
20190322035011 34 262 5.0 10.0 0.00 0.00 0.00 79 1022.1
20190322034514 36 294 3.0 10.0 0.00 0.00 0.00 79 1022.0
20190322034006 36 355 3.0 9.0 0.00 0.00 0.00 79 1021.9
20190322033506 35 296 1.0 8.0 0.00 0.00 0.00 79 1021.8
20190322033018 36 332 2.0 8.0 0.00 0.00 0.00 80 1021.8
20190322032508 35 315 3.0 9.0 0.00 0.00 0.00 80 1021.9
20190322032011 35 327 4.0 11.0 0.00 0.00 0.00 81 1021.7
20190322031515 35 360 5.0 11.0 0.00 0.00 0.00 81 1021.6
20190322031004 35 344 5.0 11.0 0.00 0.00 0.00 81 1021.6
20190322030507 35 360 5.0 11.0 0.00 0.00 0.00 81 1021.5
20190322030031 35 355 4.0 11.0 0.00 0.00 0.00 81 1021.7
20190322025004 35 335 5.0 11.0 0.00 0.00 0.00 82 1021.5
20190322024512 35 5 6.0 11.0 0.00 0.00 0.00 81 1021.5
20190322024006 35 342 5.0 11.0 0.00 0.00 0.00 81 1021.5
20190322023503 35 355 2.0 8.0 0.00 0.00 0.00 81 1021.4
20190322023003 35 9 3.0 9.0 0.00 0.00 0.00 82 1021.4
20190322022503 35 323 1.0 9.0 0.00 0.00 0.00 82 1021.3
20190322022008 35 326 2.0 8.0 0.00 0.00 0.00 82 1021.3
20190322021504 36 302 2.0 6.0 0.00 0.00 0.00 82 1021.3
20190322021003 36 337 1.0 8.0 0.00 0.00 0.00 82 1021.3
20190322020503 35 329 1.0 10.0 0.00 0.00 0.00 83 1021.3
20190322020002 35 355 3.0 11.0 0.00 0.00 0.00 84 1021.3
20190322015502 35 355 5.0 11.0 0.00 0.00 0.00 84 1021.2
20190322015001 35 17 4.0 9.0 0.00 0.00 0.00 83 1021.2
20190322014740 35 329 3.0 9.0 0.00 0.00 0.00 83 1021.2
20190322014102 35 345 1.0 8.0 0.00 0.00 0.00 83 1021.2
20190322013600 35 5 1.0 8.0 0.00 0.00 0.00 83 1021.1
20190322013212 35 344 1.0 8.0 0.00 0.00 0.00 82 1021.1
20190322012604 35 355 1.0 8.0 0.00 0.00 0.00 83 1021.1
20190322012100 35 351 1.0 8.0 0.00 0.00 0.00 83 1021.2
20190322011707 35 355 2.0 8.0 0.00 0.00 0.00 83 1021.1
20190322011506 35 341 2.0 8.0 0.00 0.00 0.00 83 1021.1
20190322011100 35 9 3.0 8.0 0.00 0.00 0.00 83 1021.1
20190322010559 35 329 1.0 8.0 0.00 0.00 0.00 83 1021.0
20190322010143 35 13 2.0 8.0 0.00 0.00 0.00 83 1021.0
20190322005601 35 331 2.0 8.0 0.00 0.00 0.00 82 1021.0
20190322005058 36 340 1.0 8.0 0.00 0.00 0.00 82 1020.8
20190322004708 36 333 2.0 8.0 0.00 0.00 0.00 82 1020.7
20190322004102 36 340 2.0 10.0 0.00 0.00 0.00 81 1020.6
20190322003604 36 28 1.0 10.0 0.00 0.00 0.00 81 1020.6
20190322003233 36 343 1.0 6.0 0.00 0.00 0.00 81 1020.6
20190322002558 36 325 2.0 9.0 0.00 0.00 0.00 81 1020.6
20190322002058 37 328 3.0 9.0 0.00 0.00 0.00 81 1020.6
20190322001712 37 302 2.0 9.0 0.00 0.00 0.00 81 1020.5
20190322001107 37 294 2.0 9.0 0.00 0.00 0.00 80 1020.5
20190322000557 38 338 1.0 8.0 0.00 0.00 0.00 80 1020.5
20190322000431 38 296 2.0 9.0 0.00 0.00 0.00 78 1020.5
20190321235557 38 290 4.0 9.0 0.00 0.00 0.00 78 1020.3
20190321235056 38 332 3.0 10.0 0.00 0.00 0.00 78 1020.3
20190321234714 38 13 4.0 10.0 0.00 0.00 0.00 78 1020.2
20190321234056 39 336 4.0 11.0 0.00 0.00 0.00 78 1020.2
20190321233558 39 336 4.0 12.0 0.00 0.00 0.00 77 1020.2
20190321232558 39 312 4.0 10.0 0.00 0.00 0.00 77 1020.1
20190321232054 39 355 4.0 10.0 0.00 0.00 0.00 77 1020.3
20190321231649 39 5 2.0 10.0 0.00 0.00 0.00 77 1020.2
20190321231056 39 316 3.0 10.0 0.00 0.00 0.00 76 1020.1
20190321230555 40 335 4.0 10.0 0.00 0.00 0.00 76 1020.1
20190321230140 40 9 2.0 11.0 0.00 0.00 0.00 76 1020.1
20190321225551 40 321 4.0 11.0 0.00 0.00 0.00 75 1020.0
20190321225051 40 319 3.0 10.0 0.00 0.00 0.00 75 1020.0
20190321224626 40 327 3.0 10.0 0.00 0.00 0.00 75 1019.9
20190321224050 40 304 3.0 11.0 0.00 0.00 0.00 75 1019.9
20190321223554 40 306 4.0 11.0 0.00 0.00 0.00 75 1019.9
20190321223220 41 343 4.0 10.0 0.00 0.00 0.00 74 1019.7
20190321222557 41 334 2.0 7.0 0.00 0.00 0.00 75 1019.7
20190321222049 41 323 2.0 8.0 0.00 0.00 0.00 74 1019.7
20190321221717 41 301 4.0 10.0 0.00 0.00 0.00 74 1019.6
20190321221049 41 300 3.0 10.0 0.00 0.00 0.00 73 1019.6
20190321220552 42 288 4.0 11.0 0.00 0.00 0.00 73 1019.6
20190321220126 42 304 5.0 11.0 0.00 0.00 0.00 72 1019.6
20190321215549 42 342 2.0 8.0 0.00 0.00 0.00 72 1019.6
20190321215049 42 303 2.0 8.0 0.00 0.00 0.00 73 1019.6
20190321214644 42 320 3.0 8.0 0.00 0.00 0.00 73 1019.7
20190321214046 42 343 2.0 8.0 0.00 0.00 0.00 73 1019.7
20190321213542 42 293 3.0 8.0 0.00 0.00 0.00 72 1019.7
20190321213120 42 314 1.0 6.0 0.00 0.00 0.00 72 1019.7
20190321212542 42 338 3.0 10.0 0.00 0.00 0.00 73 1019.6
20190321212046 42 321 3.0 10.0 0.00 0.00 0.00 71 1019.6
20190321211630 42 323 4.0 10.0 0.00 0.00 0.00 72 1019.6
20190321211041 42 334 3.0 9.0 0.00 0.00 0.00 72 1019.6
20190321210542 43 310 3.0 8.0 0.00 0.00 0.00 72 1019.5
20190321210113 43 350 2.0 8.0 0.00 0.00 0.00 71 1019.5
20190321205542 43 350 2.0 8.0 0.00 0.00 0.00 72 1019.5
20190321205040 43 360 2.0 9.0 0.00 0.00 0.00 72 1019.4
20190321204632 43 340 4.0 9.0 0.00 0.00 0.00 73 1019.3
20190321204039 43 325 4.0 9.0 0.00 0.00 0.00 71 1019.2
20190321203539 43 317 4.0 9.0 0.00 0.00 0.00 72 1019.2
20190321203137 44 299 2.0 8.0 0.00 0.00 0.00 70 1019.2
20190321202539 43 298 3.0 8.0 0.00 0.00 0.00 71 1019.2
20190321202039 43 321 2.0 9.0 0.00 0.00 0.00 71 1019.2
20190321201621 43 329 2.0 9.0 0.00 0.00 0.00 73 1019.1
20190321201038 43 326 4.0 8.0 0.00 0.00 0.00 73 1019.1
20190321200538 43 335 3.0 10.0 0.00 0.00 0.00 73 1019.0
20190321200146 43 344 3.0 10.0 0.00 0.00 0.00 72 1018.9
20190321195537 43 319 3.0 9.0 0.00 0.00 0.00 72 1018.9
20190321195039 43 306 4.0 9.0 0.00 0.00 0.00 72 1018.8
20190321194632 43 297 4.0 9.0 0.00 0.00 0.00 73 1018.8
20190321194042 43 288 4.0 9.0 0.00 0.00 0.00 71 1018.8
20190321193536 43 309 3.0 9.0 0.00 0.00 0.00 71 1018.8
20190321193145 43 344 4.0 9.0 0.00 0.00 0.00 72 1018.8
20190321192540 43 317 3.0 8.0 0.00 0.00 0.00 71 1018.8
20190321192042 43 313 3.0 10.0 0.00 0.00 0.00 72 1018.7
20190321191631 43 340 2.0 10.0 0.00 0.00 0.00 71 1018.6
20190321191043 43 309 2.0 11.0 0.00 0.00 0.00 71 1018.7
20190321190539 43 331 5.0 12.0 0.00 0.00 0.00 72 1018.7
20190321190104 43 355 6.0 12.0 0.00 0.00 0.00 72 1018.8
20190321185039 42 33 3.0 9.0 0.00 0.00 0.00 74 1018.6
20190321184628 42 298 4.0 9.0 0.00 0.00 0.00 74 1018.6
20190321184030 43 351 3.0 10.0 0.00 0.00 0.00 73 1018.8
20190321183537 42 311 4.0 10.0 0.00 0.00 0.00 74 1018.5
20190321183115 42 324 3.0 11.0 0.00 0.00 0.00 73 1018.5
20190321182527 42 296 4.0 11.0 0.00 0.00 0.00 74 1018.5
20190321182034 42 325 3.0 10.0 0.00 0.00 0.00 74 1018.6
20190321181534 42 314 5.0 10.0 0.00 0.00 0.00 73 1018.5
20190321181025 42 314 4.0 12.0 0.00 0.00 0.00 74 1018.5
20190321180528 42 311 4.0 12.0 0.00 0.00 0.00 74 1018.5
20190321180042 42 306 3.0 11.0 0.00 0.00 0.00 74 1018.4
20190321175523 42 298 6.0 12.0 0.00 0.00 0.00 74 1018.4
20190321175022 41 319 4.0 9.0 0.00 0.00 0.00 75 1018.4
20190321174559 41 288 4.0 11.0 0.00 0.00 0.00 75 1018.5
20190321174021 42 324 4.0 11.0 0.00 0.00 0.00 75 1018.5
20190321173528 41 294 4.0 12.0 0.00 0.00 0.00 75 1018.4
20190321173029 41 303 4.0 12.0 0.00 0.00 0.00 75 1018.4
20190321172531 41 306 4.0 13.0 0.00 0.00 0.00 76 1018.4
20190321172017 41 309 5.0 13.0 0.00 0.00 0.00 76 1018.4
20190321171523 40 281 5.0 12.0 0.00 0.00 0.00 76 1018.4
20190321171014 40 351 5.0 10.0 0.00 0.00 0.00 77 1018.3
20190321170514 40 277 5.0 11.0 0.00 0.00 0.00 77 1018.5
20190321170028 40 288 6.0 11.0 0.00 0.00 0.00 77 1018.4
20190321165516 39 298 5.0 10.0 0.00 0.00 0.00 78 1018.4
20190321165014 39 256 6.0 10.0 0.00 0.00 0.00 77 1018.5
20190321164512 39 304 6.0 11.0 0.00 0.00 0.00 77 1018.5
20190321164008 39 296 7.0 11.0 0.00 0.00 0.00 77 1018.4
20190321163506 39 282 4.0 9.0 0.00 0.00 0.00 78 1018.3
20190321163016 39 303 5.0 10.0 0.00 0.00 0.00 78 1018.4
20190321162503 38 298 5.0 10.0 0.00 0.00 0.00 78 1018.4
20190321162002 38 275 4.0 12.0 0.00 0.00 0.00 78 1018.4
20190321161100 38 276 4.0 12.0 0.00 0.00 0.00 78 1018.4
20190321160557 38 294 4.0 9.0 0.00 0.00 0.00 79 1018.4
20190321160115 38 323 3.0 12.0 0.00 0.00 0.00 79 1018.4
20190321155557 37 281 6.0 12.0 0.00 0.00 0.00 80 1018.3
20190321155055 36 304 7.0 12.0 0.00 0.00 0.00 81 1018.4
20190321154741 36 225 6.0 12.0 0.00 0.00 0.00 81 1018.3
20190321154055 36 254 7.0 12.0 0.00 0.00 0.00 81 1018.4
20190321153558 36 223 7.0 12.0 0.00 0.00 0.00 80 1018.3
20190321153122 36 276 6.0 10.0 0.00 0.00 0.00 81 1018.3
20190321152546 35 292 4.0 9.0 0.00 0.00 0.00 82 1018.2
20190321152045 35 281 4.0 11.0 0.00 0.00 0.00 82 1018.2
20190321151604 35 292 5.0 11.0 0.00 0.00 0.00 83 1018.1
20190321151045 35 242 6.0 11.0 0.00 0.00 0.00 82 1017.8
20190321150544 34 255 4.0 11.0 0.00 0.00 0.00 84 1017.8
20190321150158 34 257 6.0 11.0 0.00 0.00 0.00 83 1017.9
20190321145547 34 241 3.0 8.0 0.00 0.00 0.00 84 1017.9
20190321145037 33 237 4.0 8.0 0.00 0.00 0.00 85 1017.9
20190321144611 33 235 2.0 8.0 0.00 0.00 0.00 86 1017.9
20190321144037 32 231 4.0 11.0 0.00 0.00 0.00 86 1018.0
20190321143534 32 251 3.0 11.0 0.00 0.00 0.00 86 1018.2
20190321143103 31 253 4.0 10.0 0.00 0.00 0.00 87 1018.3
20190321142533 31 204 3.0 7.0 0.00 0.00 0.00 87 1018.3
20190321142029 30 258 3.0 9.0 0.00 0.00 0.00 88 1018.4
20190321141547 30 269 3.0 9.0 0.00 0.00 0.00 88 1018.4
20190321141027 29 261 2.0 8.0 0.00 0.00 0.00 88 1018.5
20190321140533 29 244 3.0 8.0 0.00 0.00 0.00 89 1018.5
20190321140033 28 246 2.0 8.0 0.00 0.00 0.00 89 1018.4
20190321135527 28 247 3.0 9.0 0.00 0.00 0.00 90 1018.5
20190321135021 27 239 3.0 10.0 0.00 0.00 0.00 90 1018.5
20190321134556 27 246 0.0 8.0 0.00 0.00 0.00 90 1018.5
20190321134020 26 242 1.0 8.0 0.00 0.00 0.00 91 1018.4
20190321133519 26 241 1.0 5.0 0.00 0.00 0.00 91 1018.5
20190321133055 25 254 2.0 6.0 0.00 0.00 0.00 91 1018.6
20190321132521 24 214 0.0 4.0 0.00 0.00 0.00 92 1018.5
20190321132017 24 212 0.0 4.0 0.00 0.00 0.00 92 1018.6
20190321131526 24 217 0.0 2.0 0.00 0.00 0.00 92 1018.6
20190321131022 23 217 0.0 4.0 0.00 0.00 0.00 92 1018.6
20190321130519 23 201 1.0 4.0 0.00 0.00 0.00 92 1018.6
20190321130105 23 232 0.0 4.0 0.00 0.00 0.00 93 1018.6
20190321125517 22 218 0.0 4.0 0.00 0.00 0.00 92 1018.6
20190321125015 22 248 0.0 3.0 0.00 0.00 0.00 92 1018.5
20190321124528 22 230 0.0 3.0 0.00 0.00 0.00 93 1018.5
20190321124012 22 203 0.0 3.0 0.00 0.00 0.00 93 1018.4
20190321123516 21 181 0.0 2.0 0.00 0.00 0.00 93 1018.6
20190321123022 21 180 0.0 2.0 0.00 0.00 0.00 93 1018.6
20190321122517 20 179 0.0 0.0 0.00 0.00 0.00 93 1018.7
20190321122014 20 179 0.0 2.0 0.00 0.00 0.00 93 1018.6
20190321121538 20 179 0.0 2.0 0.00 0.00 0.00 93 1018.7
20190321121010 20 179 0.0 2.0 0.00 0.00 0.00 93 1018.7
20190321120507 20 179 0.0 2.0 0.00 0.00 0.00 93 1018.9
20190321120012 21 179 0.0 2.0 0.00 0.00 0.00 93 1018.8
20190321115507 21 179 0.0 2.0 0.00 0.00 0.00 93 1018.9
20190321115013 21 179 0.0 0.0 0.00 0.00 0.00 93 1018.9
20190321114508 20 179 0.0 2.0 0.00 0.00 0.00 93 1018.9
20190321114011 21 179 0.0 3.0 0.00 0.00 0.00 93 1018.9
20190321113504 21 179 1.0 3.0 0.00 0.00 0.00 93 1018.9
20190321113006 21 218 0.0 0.0 0.00 0.00 0.00 93 1018.9
20190321112502 22 218 0.0 1.0 0.00 0.00 0.00 93 1019.0
20190321112002 22 218 0.0 1.0 0.00 0.00 0.00 93 1018.8
20190321111503 22 218 0.0 2.0 0.00 0.00 0.00 93 1019.0
20190321111105 22 218 0.0 2.0 0.00 0.00 0.00 93 1019.1
20190321110558 23 219 1.0 3.0 0.00 0.00 0.00 92 1019.2
20190321110158 24 219 0.0 3.0 0.00 0.00 0.00 93 1019.3
20190321105557 25 219 0.0 2.0 0.00 0.00 0.00 93 1019.2
20190321105100 24 219 0.0 2.0 0.00 0.00 0.00 93 1019.2
20190321104631 24 219 0.0 2.0 0.00 0.00 0.00 93 1019.1
20190321104101 24 219 0.0 3.0 0.00 0.00 0.00 93 1019.1
20190321103556 24 219 0.0 3.0 0.00 0.00 0.00 93 1019.1
20190321103155 25 219 1.0 3.0 0.00 0.00 0.00 93 1019.2
20190321102557 24 232 1.0 2.0 0.00 0.00 0.00 93 1019.3
20190321102103 24 232 0.0 2.0 0.00 0.00 0.00 93 1019.3
20190321101648 24 232 0.0 2.0 0.00 0.00 0.00 94 1019.3
20190321101054 24 232 0.0 2.0 0.00 0.00 0.00 94 1019.4
20190321100552 24 232 0.0 1.0 0.00 0.00 0.00 93 1019.5
20190321100224 24 232 0.0 2.0 0.00 0.00 0.00 93 1019.6
20190321095550 24 232 0.0 3.0 0.00 0.00 0.00 93 1019.6
20190321095049 25 232 1.0 3.0 0.00 0.00 0.00 93 1019.6
20190321094703 25 232 0.0 2.0 0.00 0.00 0.00 94 1019.7
20190321094048 25 232 0.0 2.0 0.00 0.00 0.00 94 1019.7
20190321093548 25 232 0.0 2.0 0.00 0.00 0.00 93 1019.8
20190321093151 25 232 0.0 2.0 0.00 0.00 0.00 94 1019.8
20190321092551 25 232 0.0 3.0 0.00 0.00 0.00 94 1019.8
20190321092047 25 242 0.0 2.0 0.00 0.00 0.00 93 1019.8
20190321091648 25 242 0.0 2.0 0.00 0.00 0.00 93 1019.9
20190321091050 25 243 0.0 3.0 0.00 0.00 0.00 94 1019.9
20190321090549 25 242 1.0 3.0 0.00 0.00 0.00 94 1020.1
20190321090210 25 242 0.0 2.0 0.00 0.00 0.00 93 1020.0
20190321085544 25 242 0.0 3.0 0.00 0.00 0.00 94 1020.3
20190321085045 25 242 0.0 3.0 0.00 0.00 0.00 94 1020.3
20190321084602 25 240 0.0 2.0 0.00 0.00 0.00 94 1020.3
20190321084045 25 240 0.0 3.0 0.00 0.00 0.00 93 1020.4
20190321083543 25 240 0.0 3.0 0.00 0.00 0.00 94 1020.5
20190321083122 25 242 0.0 2.0 0.00 0.00 0.00 94 1020.5
20190321082547 25 252 0.0 3.0 0.00 0.00 0.00 94 1020.5
20190321082041 25 253 1.0 4.0 0.00 0.00 0.00 93 1020.5
20190321081735 25 256 1.0 4.0 0.00 0.00 0.00 94 1020.5
20190321081040 25 243 1.0 4.0 0.00 0.00 0.00 94 1020.6
20190321080545 25 233 2.0 7.0 0.00 0.00 0.00 94 1020.6
20190321080105 25 225 1.0 7.0 0.00 0.00 0.00 94 1020.7
20190321075544 26 240 2.0 4.0 0.00 0.00 0.00 94 1020.7
20190321075036 25 248 1.0 3.0 0.00 0.00 0.00 94 1020.8
20190321074614 26 259 1.0 3.0 0.00 0.00 0.00 94 1020.8
20190321074041 25 265 0.0 1.0 0.00 0.00 0.00 94 1020.8
20190321073535 25 266 0.0 0.0 0.00 0.00 0.00 94 1020.8
20190321073101 24 267 0.0 0.0 0.00 0.00 0.00 94 1020.8
20190321072535 25 267 0.0 0.0 0.00 0.00 0.00 94 1020.8
20190321072040 25 267 0.0 0.0 0.00 0.00 0.00 94 1020.9
20190321071601 25 267 0.0 0.0 0.00 0.00 0.00 95 1021.0
20190321071034 25 267 0.0 0.0 0.00 0.00 0.00 94 1021.0
20190321070533 25 267 0.0 0.0 0.00 0.00 0.00 95 1021.0
20190321070038 24 267 0.0 0.0 0.00 0.00 0.00 94 1021.0
20190321065535 24 267 0.0 0.0 0.00 0.00 0.00 93 1021.0
20190321065030 25 267 0.0 0.0 0.00 0.00 0.00 94 1021.0
20190321064614 25 267 0.0 0.0 0.00 0.00 0.00 94 1020.9
20190321064031 26 267 0.0 0.0 0.00 0.00 0.00 94 1020.9
20190321063529 26 267 0.0 0.0 0.00 0.00 0.00 93 1021.0
20190321063115 26 267 0.0 0.0 0.00 0.00 0.00 93 1020.9
20190321062525 27 267 0.0 1.0 0.00 0.00 0.00 94 1021.1